Location: �perlecques
(50.8057°N, 2.1521°E)
Time: 23:56:31
(UTC+00:00)

Oscar 11 - Visible Passes

Search period start: 25 September 2021 00:00
Search period end: 05 October 2021 00:00
Orbit: 612 x 626 km, 97.6° (Epoch: 25 September)

Date Brightness Start Highest point End Pass type
(mag) Time Alt. Az. Time Alt. Az. Time Alt. Az.
25 Sep 10.1 04:29:35 10° NE 04:32:44 19° E 04:35:52 10° SE visible
26 Sep 9.5 04:46:05 10° NE 04:49:47 27° E 04:53:28 10° SSE visible
27 Sep 8.7 05:02:44 10° NNE 05:06:47 39° E 05:10:50 10° SSE visible
29 Sep 10.6 04:02:52 10° ENE 04:03:51 11° E 04:04:52 10° E visible
30 Sep 10.2 04:18:22 10° NE 04:20:59 16° E 04:23:35 10° SE visible
01 Oct 9.8 04:34:41 10° NE 04:38:04 22° E 04:41:26 10° SE visible
02 Oct 9.2 04:51:14 10° NNE 04:55:06 31° E 04:58:56 10° SSE visible
03 Oct 8.4 05:07:56 10° NNE 05:12:05 45° E 05:16:13 10° S visible
04 Oct 10.9 18:03:17 10° WSW 18:04:49 12° W 18:06:20 10° WNW visible
